Time,TemperatureF,DewpointF,PressureIn,WindDirection,WindDirectionDegrees,WindSpeedMPH,WindSpeedGustMPH,Humidity,HourlyPrecipIn,Conditions,Clouds,dailyrainin,SoftwareType,DateUTC
2013-11-28 00:02:00,21.4,16.9,30.13,South,180,1.3,2.5,82,0.00,,,0.00,WUHU21623XXSP,2013-11-28 06:02:00,
2013-11-28 00:07:00,21.6,16.8,30.12,South,180,3.8,4.0,81,0.00,,,0.00,WUHU21623XXSP,2013-11-28 06:07:00,
2013-11-28 00:12:00,21.7,16.9,30.12,South,180,2.7,4.7,81,0.00,,,0.00,WUHU21623XXSP,2013-11-28 06:12:00,
2013-11-28 00:17:00,21.9,17.1,30.12,SSW,202,2.0,5.6,81,0.00,,,0.00,WUHU21623XXSP,2013-11-28 06:17:00,
2013-11-28 00:22:00,21.9,16.8,30.12,South,180,3.4,5.6,80,0.00,,,0.00,WUHU21623XXSP,2013-11-28 06:22:00,
2013-11-28 00:27:00,21.9,16.8,30.12,SE,135,2.0,5.8,80,0.00,,,0.00,WUHU21623XXSP,2013-11-28 06:27:00,
2013-11-28 00:32:00,21.9,16.5,30.12,SSW,202,2.0,5.8,79,0.00,,,0.00,WUHU21623XXSP,2013-11-28 06:32:00,
2013-11-28 00:37:00,21.9,16.5,30.12,South,180,2.0,5.1,79,0.00,,,0.00,WUHU21623XXSP,2013-11-28 06:37:00,
2013-11-28 00:42:00,21.9,16.5,30.11,SSW,202,3.1,4.7,79,0.00,,,0.00,WUHU21623XXSP,2013-11-28 06:42:00,
2013-11-28 00:47:00,21.9,16.5,30.12,SSW,202,3.4,6.0,79,0.00,,,0.00,WUHU21623XXSP,2013-11-28 06:47:00,
2013-11-28 00:52:00,21.9,16.5,30.12,SSE,157,0.0,6.0,79,0.00,,,0.00,WUHU21623XXSP,2013-11-28 06:52:00,
2013-11-28 00:57:00,21.9,16.2,30.11,SSE,157,3.1,5.8,78,0.00,,,0.00,WUHU21623XXSP,2013-11-28 06:57:00,
2013-11-28 01:02:00,21.9,16.2,30.11,SE,135,0.0,5.8,78,0.00,,,0.00,WUHU21623XXSP,2013-11-28 07:02:00,
2013-11-28 01:07:00,21.9,16.2,30.11,South,180,3.8,5.1,78,0.00,,,0.00,WUHU21623XXSP,2013-11-28 07:07:00,
2013-11-28 01:12:00,21.9,16.2,30.11,South,180,0.0,3.8,78,0.00,,,0.00,WUHU21623XXSP,2013-11-28 07:12:00,
2013-11-28 01:17:00,21.9,16.2,30.11,SSW,202,3.6,4.7,78,0.00,,,0.00,WUHU21623XXSP,2013-11-28 07:17:00,
2013-11-28 01:22:00,21.9,16.2,30.11,South,180,1.6,5.4,78,0.00,,,0.00,WUHU21623XXSP,2013-11-28 07:22:00,
2013-11-28 01:27:00,21.9,16.2,30.11,SSW,202,1.6,5.4,78,0.00,,,0.00,WUHU21623XXSP,2013-11-28 07:27:00,
2013-11-28 01:32:00,21.7,15.7,30.11,South,180,2.7,3.8,77,0.00,,,0.00,WUHU21623XXSP,2013-11-28 07:32:00,
2013-11-28 01:37:00,21.9,15.9,30.11,South,180,2.5,4.7,77,0.00,,,0.00,WUHU21623XXSP,2013-11-28 07:37:00,
2013-11-28 01:42:00,21.7,15.7,30.10,SSW,202,3.6,4.7,77,0.00,,,0.00,WUHU21623XXSP,2013-11-28 07:42:00,
2013-11-28 01:47:00,21.7,15.7,30.11,South,180,4.5,5.6,77,0.00,,,0.00,WUHU21623XXSP,2013-11-28 07:47:00,
2013-11-28 01:52:00,21.9,15.9,30.11,South,180,0.0,6.3,77,0.00,,,0.00,WUHU21623XXSP,2013-11-28 07:52:00,
2013-11-28 01:57:00,21.7,15.7,30.11,SE,135,0.0,6.3,77,0.00,,,0.00,WUHU21623XXSP,2013-11-28 07:57:00,
2013-11-28 02:02:00,21.7,15.7,30.11,South,180,1.1,3.6,77,0.00,,,0.00,WUHU21623XXSP,2013-11-28 08:02:00,
2013-11-28 02:07:00,21.7,15.7,30.11,SSE,157,0.0,3.6,77,0.00,,,0.00,WUHU21623XXSP,2013-11-28 08:07:00,
2013-11-28 02:12:00,21.7,15.7,30.11,South,180,0.0,3.6,77,0.00,,,0.00,WUHU21623XXSP,2013-11-28 08:12:00,
2013-11-28 02:17:00,21.7,15.7,30.10,South,180,1.6,2.9,77,0.00,,,0.00,WUHU21623XXSP,2013-11-28 08:17:00,
2013-11-28 02:22:00,21.7,15.7,30.10,South,180,0.0,4.0,77,0.00,,,0.00,WUHU21623XXSP,2013-11-28 08:22:00,
2013-11-28 02:27:00,21.7,15.7,30.10,South,180,2.2,4.0,77,0.00,,,0.00,WUHU21623XXSP,2013-11-28 08:27:00,
2013-11-28 02:32:00,21.7,15.7,30.09,SSW,202,1.1,3.8,77,0.00,,,0.00,WUHU21623XXSP,2013-11-28 08:32:00,
2013-11-28 02:37:00,21.7,15.7,30.09,South,180,3.4,4.7,77,0.00,,,0.00,WUHU21623XXSP,2013-11-28 08:37:00,
2013-11-28 02:42:00,21.6,15.6,30.09,SSE,157,2.0,4.7,77,0.00,,,0.00,WUHU21623XXSP,2013-11-28 08:42:00,
2013-11-28 02:47:00,21.6,15.6,30.09,South,180,0.0,4.7,77,0.00,,,0.00,WUHU21623XXSP,2013-11-28 08:47:00,
2013-11-28 02:52:00,21.6,15.6,30.09,South,180,4.5,4.7,77,0.00,,,0.00,WUHU21623XXSP,2013-11-28 08:52:00,
2013-11-28 02:57:00,21.6,15.6,30.09,SSW,202,2.2,4.7,77,0.00,,,0.00,WUHU21623XXSP,2013-11-28 08:57:00,
2013-11-28 03:02:00,21.6,15.6,30.09,SSE,157,1.6,4.3,77,0.00,,,0.00,WUHU21623XXSP,2013-11-28 09:02:00,
2013-11-28 03:07:00,21.6,15.6,30.08,South,180,0.0,4.3,77,0.00,,,0.00,WUHU21623XXSP,2013-11-28 09:07:00,
2013-11-28 03:12:00,21.6,15.6,30.08,SSW,202,3.8,4.3,77,0.00,,,0.00,WUHU21623XXSP,2013-11-28 09:12:00,
2013-11-28 03:17:00,21.6,15.3,30.08,SSE,157,2.7,4.5,76,0.00,,,0.00,WUHU21623XXSP,2013-11-28 09:17:00,
2013-11-28 03:22:00,21.6,15.6,30.09,South,180,3.8,5.6,77,0.00,,,0.00,WUHU21623XXSP,2013-11-28 09:22:00,
2013-11-28 03:27:00,21.6,15.3,30.08,SSW,202,2.5,6.3,76,0.00,,,0.00,WUHU21623XXSP,2013-11-28 09:27:00,
2013-11-28 03:32:00,21.6,15.3,30.08,South,180,4.9,6.7,76,0.00,,,0.00,WUHU21623XXSP,2013-11-28 09:32:00,
2013-11-28 03:37:00,21.6,15.0,30.08,South,180,0.9,6.7,75,0.00,,,0.00,WUHU21623XXSP,2013-11-28 09:37:00,
2013-11-28 03:42:00,21.6,15.0,30.08,SSW,202,4.5,4.5,75,0.00,,,0.00,WUHU21623XXSP,2013-11-28 09:42:00,
2013-11-28 03:47:00,21.6,15.0,30.08,SSW,202,3.4,4.5,75,0.00,,,0.00,WUHU21623XXSP,2013-11-28 09:47:00,
2013-11-28 03:52:00,21.6,15.0,30.08,SSW,202,2.0,4.3,75,0.00,,,0.00,WUHU21623XXSP,2013-11-28 09:52:00,
2013-11-28 03:57:00,21.6,15.0,30.08,South,180,3.1,6.7,75,0.00,,,0.00,WUHU21623XXSP,2013-11-28 09:57:00,
2013-11-28 04:02:00,21.6,15.0,30.08,South,180,6.7,6.7,75,0.00,,,0.00,WUHU21623XXSP,2013-11-28 10:02:00,
2013-11-28 04:07:00,21.6,15.0,30.08,South,180,3.6,6.7,75,0.00,,,0.00,WUHU21623XXSP,2013-11-28 10:07:00,
2013-11-28 04:12:00,21.6,15.0,30.09,South,180,4.5,6.3,75,0.00,,,0.00,WUHU21623XXSP,2013-11-28 10:12:00,
2013-11-28 04:17:00,21.6,15.0,30.08,South,180,1.6,5.6,75,0.00,,,0.00,WUHU21623XXSP,2013-11-28 10:17:00,
2013-11-28 04:22:00,21.6,15.0,30.08,South,180,2.0,5.6,75,0.00,,,0.00,WUHU21623XXSP,2013-11-28 10:22:00,
2013-11-28 04:27:00,21.6,15.0,30.08,SSE,157,0.0,3.1,75,0.00,,,0.00,WUHU21623XXSP,2013-11-28 10:27:00,
2013-11-28 04:32:00,21.6,15.0,30.08,South,180,0.0,3.1,75,0.00,,,0.00,WUHU21623XXSP,2013-11-28 10:32:00,
2013-11-28 04:37:00,21.6,15.0,30.08,SE,135,0.0,3.1,75,0.00,,,0.00,WUHU21623XXSP,2013-11-28 10:37:00,
2013-11-28 04:42:00,21.6,15.0,30.07,SSE,157,0.0,3.4,75,0.00,,,0.00,WUHU21623XXSP,2013-11-28 10:42:00,
2013-11-28 04:47:00,21.6,15.0,30.07,SE,135,0.0,3.4,75,0.00,,,0.00,WUHU21623XXSP,2013-11-28 10:47:00,
2013-11-28 04:52:00,21.6,15.0,30.07,SE,135,0.0,2.2,75,0.00,,,0.00,WUHU21623XXSP,2013-11-28 10:52:00,
2013-11-28 04:57:00,21.6,15.0,30.07,SSE,157,0.0,3.1,75,0.00,,,0.00,WUHU21623XXSP,2013-11-28 10:57:00,
2013-11-28 05:02:00,21.7,15.1,30.08,South,180,2.7,3.1,75,0.00,,,0.00,WUHU21623XXSP,2013-11-28 11:02:00,
2013-11-28 05:07:00,21.7,15.1,30.08,SSW,202,1.6,4.5,75,0.00,,,0.00,WUHU21623XXSP,2013-11-28 11:07:00,
2013-11-28 05:12:00,21.7,15.1,30.07,SSW,202,1.6,4.5,75,0.00,,,0.00,WUHU21623XXSP,2013-11-28 11:12:00,
2013-11-28 05:17:00,21.7,15.1,30.07,SSW,202,4.5,4.5,75,0.00,,,0.00,WUHU21623XXSP,2013-11-28 11:17:00,
2013-11-28 05:22:00,21.7,15.1,30.07,South,180,0.7,4.5,75,0.00,,,0.00,WUHU21623XXSP,2013-11-28 11:22:00,
2013-11-28 05:27:00,21.7,15.1,30.07,WSW,247,4.3,4.3,75,0.00,,,0.00,WUHU21623XXSP,2013-11-28 11:27:00,
2013-11-28 05:32:00,21.9,15.3,30.07,SSW,202,1.8,4.3,75,0.00,,,0.00,WUHU21623XXSP,2013-11-28 11:32:00,
2013-11-28 05:37:00,21.9,15.3,30.08,South,180,5.4,5.4,75,0.00,,,0.00,WUHU21623XXSP,2013-11-28 11:37:00,
2013-11-28 05:42:00,21.9,15.0,30.07,SSW,202,5.1,7.4,74,0.00,,,0.00,WUHU21623XXSP,2013-11-28 11:42:00,
2013-11-28 05:47:00,21.9,15.0,30.08,South,180,0.0,7.4,74,0.00,,,0.00,WUHU21623XXSP,2013-11-28 11:47:00,
2013-11-28 05:52:00,21.9,15.0,30.08,SSW,202,0.9,5.1,74,0.00,,,0.00,WUHU21623XXSP,2013-11-28 11:52:00,
2013-11-28 05:57:00,21.9,15.0,30.08,SSW,202,1.8,4.9,74,0.00,,,0.00,WUHU21623XXSP,2013-11-28 11:57:00,
2013-11-28 06:02:00,22.1,15.2,30.08,South,180,2.5,4.9,74,0.00,,,0.00,WUHU21623XXSP,2013-11-28 12:02:00,
2013-11-28 06:07:00,22.1,15.2,30.08,South,180,2.0,4.7,74,0.00,,,0.00,WUHU21623XXSP,2013-11-28 12:07:00,
2013-11-28 06:12:00,22.1,15.2,30.09,South,180,2.5,4.7,74,0.00,,,0.00,WUHU21623XXSP,2013-11-28 12:12:00,
2013-11-28 06:17:00,22.1,15.2,30.08,SSW,202,2.0,5.1,74,0.00,,,0.00,WUHU21623XXSP,2013-11-28 12:17:00,
2013-11-28 06:22:00,22.1,15.2,30.08,SSE,157,1.3,8.5,74,0.00,,,0.00,WUHU21623XXSP,2013-11-28 12:22:00,
2013-11-28 06:27:00,22.3,15.4,30.08,SSW,202,4.5,8.5,74,0.00,,,0.00,WUHU21623XXSP,2013-11-28 12:27:00,
2013-11-28 06:32:00,22.3,15.4,30.08,South,180,4.3,6.9,74,0.00,,,0.00,WUHU21623XXSP,2013-11-28 12:32:00,
2013-11-28 06:37:00,22.3,15.4,30.08,South,180,1.6,6.9,74,0.00,,,0.00,WUHU21623XXSP,2013-11-28 12:37:00,
2013-11-28 06:42:00,22.3,15.4,30.08,SSE,157,1.6,7.8,74,0.00,,,0.00,WUHU21623XXSP,2013-11-28 12:42:00,
2013-11-28 06:47:00,22.3,15.4,30.08,SSW,202,5.8,7.8,74,0.00,,,0.00,WUHU21623XXSP,2013-11-28 12:47:00,
2013-11-28 06:52:00,22.5,15.5,30.09,South,180,3.1,7.8,74,0.00,,,0.00,WUHU21623XXSP,2013-11-28 12:52:00,
2013-11-28 06:57:00,22.5,15.5,30.09,SSE,157,2.5,6.0,74,0.00,,,0.00,WUHU21623XXSP,2013-11-28 12:57:00,
2013-11-28 07:02:00,22.5,15.5,30.09,SSE,157,0.0,4.0,74,0.00,,,0.00,WUHU21623XXSP,2013-11-28 13:02:00,
2013-11-28 07:07:00,22.5,15.5,30.09,SSE,157,1.3,4.0,74,0.00,,,0.00,WUHU21623XXSP,2013-11-28 13:07:00,
2013-11-28 07:12:00,22.5,15.5,30.09,SSE,157,4.0,4.7,74,0.00,,,0.00,WUHU21623XXSP,2013-11-28 13:12:00,
2013-11-28 07:17:00,22.5,15.5,30.09,SSW,202,2.5,5.6,74,0.00,,,0.00,WUHU21623XXSP,2013-11-28 13:17:00,
2013-11-28 07:22:00,22.6,15.3,30.09,SSW,202,4.7,6.0,73,0.00,,,0.00,WUHU21623XXSP,2013-11-28 13:22:00,
2013-11-28 07:27:00,22.6,15.3,30.09,SE,135,1.3,6.0,73,0.00,,,0.00,WUHU21623XXSP,2013-11-28 13:27:00,
2013-11-28 07:32:00,22.6,15.3,30.09,SE,135,0.0,4.3,73,0.00,,,0.00,WUHU21623XXSP,2013-11-28 13:32:00,
2013-11-28 07:37:00,22.6,15.6,30.09,South,180,1.8,4.3,74,0.00,,,0.00,WUHU21623XXSP,2013-11-28 13:37:00,
2013-11-28 07:42:00,22.8,15.8,30.10,WSW,247,1.8,3.8,74,0.00,,,0.00,WUHU21623XXSP,2013-11-28 13:42:00,
2013-11-28 07:47:00,22.8,15.8,30.09,South,180,2.2,3.1,74,0.00,,,0.00,WUHU21623XXSP,2013-11-28 13:47:00,
2013-11-28 07:52:00,22.8,15.5,30.09,SSE,157,0.0,5.6,73,0.00,,,0.00,WUHU21623XXSP,2013-11-28 13:52:00,
2013-11-28 07:57:00,22.8,15.5,30.09,South,180,2.9,5.6,73,0.00,,,0.00,WUHU21623XXSP,2013-11-28 13:57:00,
2013-11-28 08:02:00,23.0,15.7,30.09,SSE,157,0.0,2.9,73,0.00,,,0.00,WUHU21623XXSP,2013-11-28 14:02:00,
2013-11-28 08:07:00,23.2,15.9,30.09,SSE,157,1.3,3.6,73,0.00,,,0.00,WUHU21623XXSP,2013-11-28 14:07:00,
2013-11-28 08:12:00,23.2,15.9,30.10,ESE,112,0.0,3.6,73,0.00,,,0.00,WUHU21623XXSP,2013-11-28 14:12:00,
2013-11-28 08:17:00,23.4,16.1,30.09,SSE,157,0.0,3.8,73,0.00,,,0.00,WUHU21623XXSP,2013-11-28 14:17:00,
2013-11-28 08:22:00,23.5,16.2,30.09,SSE,157,0.0,3.8,73,0.00,,,0.00,WUHU21623XXSP,2013-11-28 14:22:00,
2013-11-28 08:27:00,23.5,16.2,30.10,SSW,202,3.6,4.9,73,0.00,,,0.00,WUHU21623XXSP,2013-11-28 14:27:00,
2013-11-28 08:32:00,23.5,16.2,30.09,SSW,202,4.0,4.9,73,0.00,,,0.00,WUHU21623XXSP,2013-11-28 14:32:00,
2013-11-28 08:37:00,23.7,16.1,30.10,South,180,4.0,5.8,72,0.00,,,0.00,WUHU21623XXSP,2013-11-28 14:37:00,
2013-11-28 08:42:00,23.7,16.1,30.10,South,180,3.8,6.5,72,0.00,,,0.00,WUHU21623XXSP,2013-11-28 14:42:00,
2013-11-28 08:47:00,23.9,16.3,30.10,South,180,7.2,7.2,72,0.00,,,0.00,WUHU21623XXSP,2013-11-28 14:47:00,
2013-11-28 08:52:00,23.7,15.7,30.10,SSW,202,4.0,8.7,71,0.00,,,0.00,WUHU21623XXSP,2013-11-28 14:52:00,
2013-11-28 08:57:00,23.9,15.9,30.10,SSW,202,5.6,8.7,71,0.00,,,0.00,WUHU21623XXSP,2013-11-28 14:57:00,
2013-11-28 09:02:00,23.9,15.9,30.10,SE,135,0.7,8.3,71,0.00,,,0.00,WUHU21623XXSP,2013-11-28 15:02:00,
2013-11-28 09:07:00,24.1,16.1,30.10,SSE,157,2.7,8.3,71,0.00,,,0.00,WUHU21623XXSP,2013-11-28 15:07:00,
2013-11-28 09:12:00,24.1,16.1,30.11,WSW,247,2.5,8.3,71,0.00,,,0.00,WUHU21623XXSP,2013-11-28 15:12:00,
2013-11-28 09:17:00,24.1,16.1,30.10,SSW,202,3.6,8.3,71,0.00,,,0.00,WUHU21623XXSP,2013-11-28 15:17:00,
2013-11-28 09:22:00,24.3,16.3,30.10,SSW,202,4.5,7.6,71,0.00,,,0.00,WUHU21623XXSP,2013-11-28 15:22:00,
2013-11-28 09:27:00,24.4,16.1,30.10,SSE,157,4.3,6.7,70,0.00,,,0.00,WUHU21623XXSP,2013-11-28 15:27:00,
2013-11-28 09:32:00,24.4,16.1,30.11,SW,225,4.7,7.2,70,0.00,,,0.00,WUHU21623XXSP,2013-11-28 15:32:00,
2013-11-28 09:37:00,24.4,15.7,30.11,SSW,202,0.9,7.2,69,0.00,,,0.00,WUHU21623XXSP,2013-11-28 15:37:00,
2013-11-28 09:42:00,24.4,15.7,30.10,SSW,202,4.5,6.5,69,0.00,,,0.00,WUHU21623XXSP,2013-11-28 15:42:00,
2013-11-28 09:47:00,24.6,16.3,30.11,SSW,202,2.0,5.8,70,0.00,,,0.00,WUHU21623XXSP,2013-11-28 15:47:00,
2013-11-28 09:52:00,24.6,16.3,30.11,SW,225,3.6,5.1,70,0.00,,,0.00,WUHU21623XXSP,2013-11-28 15:52:00,
2013-11-28 09:57:00,24.6,16.3,30.11,SW,225,4.0,8.5,70,0.00,,,0.00,WUHU21623XXSP,2013-11-28 15:57:00,
2013-11-28 10:02:00,24.4,15.7,30.11,SSW,202,3.4,8.5,69,0.00,,,0.00,WUHU21623XXSP,2013-11-28 16:02:00,
2013-11-28 10:07:00,24.6,16.3,30.11,SSW,202,2.7,8.1,70,0.00,,,0.00,WUHU21623XXSP,2013-11-28 16:07:00,
2013-11-28 10:12:00,24.6,15.9,30.11,SSW,202,5.4,8.1,69,0.00,,,0.00,WUHU21623XXSP,2013-11-28 16:12:00,
2013-11-28 10:17:00,24.6,16.3,30.11,WSW,247,5.4,8.5,70,0.00,,,0.00,WUHU21623XXSP,2013-11-28 16:17:00,
2013-11-28 10:22:00,25.0,16.7,30.11,WSW,247,4.0,8.5,70,0.00,,,0.00,WUHU21623XXSP,2013-11-28 16:22:00,
2013-11-28 10:27:00,25.0,16.7,30.11,WNW,292,2.5,8.5,70,0.00,,,0.00,WUHU21623XXSP,2013-11-28 16:27:00,
2013-11-28 10:32:00,25.2,16.9,30.11,SW,225,2.7,6.9,70,0.00,,,0.00,WUHU21623XXSP,2013-11-28 16:32:00,
2013-11-28 10:37:00,25.2,16.9,30.11,WSW,247,2.9,7.4,70,0.00,,,0.00,WUHU21623XXSP,2013-11-28 16:37:00,
2013-11-28 10:42:00,25.3,16.9,30.11,WSW,247,5.1,8.5,70,0.00,,,0.00,WUHU21623XXSP,2013-11-28 16:42:00,
2013-11-28 10:47:00,25.3,16.9,30.11,WSW,247,3.8,8.5,70,0.00,,,0.00,WUHU21623XXSP,2013-11-28 16:47:00,
2013-11-28 10:52:00,25.3,16.9,30.11,West,270,5.1,6.5,70,0.00,,,0.00,WUHU21623XXSP,2013-11-28 16:52:00,
2013-11-28 10:57:00,25.3,16.9,30.11,WNW,292,4.9,6.9,70,0.00,,,0.00,WUHU21623XXSP,2013-11-28 16:57:00,
2013-11-28 11:02:00,25.5,17.1,30.11,SW,225,3.8,6.9,70,0.00,,,0.00,WUHU21623XXSP,2013-11-28 17:02:00,
2013-11-28 11:07:00,25.5,17.1,30.10,West,270,3.8,7.2,70,0.00,,,0.00,WUHU21623XXSP,2013-11-28 17:07:00,
2013-11-28 11:12:00,25.5,17.1,30.10,West,270,2.2,7.2,70,0.00,,,0.00,WUHU21623XXSP,2013-11-28 17:12:00,
2013-11-28 11:17:00,25.5,17.1,30.10,NW,315,2.7,6.0,70,0.00,,,0.00,WUHU21623XXSP,2013-11-28 17:17:00,
2013-11-28 11:22:00,25.5,17.1,30.10,WNW,292,3.4,8.5,70,0.00,,,0.00,WUHU21623XXSP,2013-11-28 17:22:00,
2013-11-28 11:27:00,25.7,17.3,30.10,WNW,292,0.7,8.5,70,0.00,,,0.00,WUHU21623XXSP,2013-11-28 17:27:00,
2013-11-28 11:32:00,25.7,17.3,30.10,West,270,7.6,7.6,70,0.00,,,0.00,WUHU21623XXSP,2013-11-28 17:32:00,
2013-11-28 11:37:00,25.9,17.5,30.10,West,270,3.6,7.6,70,0.00,,,0.00,WUHU21623XXSP,2013-11-28 17:37:00,
2013-11-28 11:42:00,26.1,18.1,30.10,NW,315,2.2,6.5,71,0.00,,,0.00,WUHU21623XXSP,2013-11-28 17:42:00,
2013-11-28 11:47:00,25.9,17.9,30.10,WSW,247,5.8,7.2,71,0.00,,,0.00,WUHU21623XXSP,2013-11-28 17:47:00,
2013-11-28 11:52:00,25.9,18.2,30.10,West,270,2.5,10.3,72,0.00,,,0.00,WUHU21623XXSP,2013-11-28 17:52:00,
2013-11-28 11:57:00,25.9,18.2,30.11,WNW,292,3.8,10.3,72,0.00,,,0.00,WUHU21623XXSP,2013-11-28 17:57:00,
2013-11-28 12:02:00,26.1,18.4,30.11,NW,315,5.1,7.4,72,0.00,,,0.00,WUHU21623XXSP,2013-11-28 18:02:00,
2013-11-28 12:07:00,26.4,18.7,30.11,WNW,292,1.3,7.4,72,0.00,,,0.00,WUHU21623XXSP,2013-11-28 18:07:00,
2013-11-28 12:12:00,26.4,18.3,30.11,North,0,3.1,6.9,71,0.00,,,0.00,WUHU21623XXSP,2013-11-28 18:12:00,
2013-11-28 12:17:00,26.4,18.3,30.11,West,270,2.0,7.8,71,0.00,,,0.00,WUHU21623XXSP,2013-11-28 18:17:00,
2013-11-28 12:22:00,26.6,18.5,30.11,WSW,247,8.1,8.1,71,0.00,,,0.00,WUHU21623XXSP,2013-11-28 18:22:00,
2013-11-28 12:27:00,27.0,18.9,30.11,NNW,337,3.6,8.1,71,0.00,,,0.00,WUHU21623XXSP,2013-11-28 18:27:00,
2013-11-28 12:32:00,26.8,18.4,30.11,WNW,292,3.6,7.6,70,0.00,,,0.00,WUHU21623XXSP,2013-11-28 18:32:00,
2013-11-28 12:37:00,27.0,18.6,30.12,NNW,337,4.7,6.3,70,0.00,,,0.00,WUHU21623XXSP,2013-11-28 18:37:00,
2013-11-28 12:42:00,27.1,18.7,30.12,WNW,292,2.2,6.9,70,0.00,,,0.00,WUHU21623XXSP,2013-11-28 18:42:00,
2013-11-28 12:47:00,27.1,18.7,30.12,NW,315,3.1,6.9,70,0.00,,,0.00,WUHU21623XXSP,2013-11-28 18:47:00,
2013-11-28 12:52:00,28.0,18.9,30.12,North,0,6.0,6.3,68,0.00,,,0.00,WUHU21623XXSP,2013-11-28 18:52:00,
2013-11-28 12:57:00,28.8,18.5,30.12,WNW,292,4.9,10.5,65,0.00,,,0.00,WUHU21623XXSP,2013-11-28 18:57:00,
2013-11-28 13:02:00,29.3,19.4,30.12,NW,315,1.8,10.5,66,0.00,,,0.00,WUHU21623XXSP,2013-11-28 19:02:00,
2013-11-28 13:07:00,29.1,18.8,30.12,West,270,5.1,7.6,65,0.00,,,0.00,WUHU21623XXSP,2013-11-28 19:07:00,
2013-11-28 13:12:00,28.2,18.0,30.12,NW,315,3.4,9.8,65,0.00,,,0.00,WUHU21623XXSP,2013-11-28 19:12:00,
2013-11-28 13:17:00,28.9,19.0,30.12,NNE,22,3.8,9.8,66,0.00,,,0.00,WUHU21623XXSP,2013-11-28 19:17:00,
2013-11-28 13:22:00,27.7,17.5,30.13,WNW,292,3.8,7.8,65,0.00,,,0.00,WUHU21623XXSP,2013-11-28 19:22:00,
2013-11-28 13:27:00,27.7,17.9,30.13,NW,315,7.4,7.8,66,0.00,,,0.00,WUHU21623XXSP,2013-11-28 19:27:00,
2013-11-28 13:32:00,28.0,17.8,30.13,North,0,3.1,7.4,65,0.00,,,0.00,WUHU21623XXSP,2013-11-28 19:32:00,
2013-11-28 13:37:00,27.9,18.4,30.13,NW,315,4.0,6.9,67,0.00,,,0.00,WUHU21623XXSP,2013-11-28 19:37:00,
2013-11-28 13:42:00,27.7,17.9,30.13,WNW,292,4.9,7.4,66,0.00,,,0.00,WUHU21623XXSP,2013-11-28 19:42:00,
2013-11-28 13:47:00,28.8,18.9,30.13,North,0,6.3,7.4,66,0.00,,,0.00,WUHU21623XXSP,2013-11-28 19:47:00,
2013-11-28 13:52:00,28.2,18.0,30.14,North,0,5.1,8.1,65,0.00,,,0.00,WUHU21623XXSP,2013-11-28 19:52:00,
2013-11-28 13:57:00,28.0,18.1,30.14,NW,315,5.6,8.1,66,0.00,,,0.00,WUHU21623XXSP,2013-11-28 19:57:00,
2013-11-28 14:02:00,28.2,18.3,30.14,North,0,3.6,8.9,66,0.00,,,0.00,WUHU21623XXSP,2013-11-28 20:02:00,
2013-11-28 14:07:00,28.0,18.5,30.14,WNW,292,2.5,9.6,67,0.00,,,0.00,WUHU21623XXSP,2013-11-28 20:07:00,
2013-11-28 14:12:00,27.7,18.2,30.15,North,0,2.7,9.6,67,0.00,,,0.00,WUHU21623XXSP,2013-11-28 20:12:00,
2013-11-28 14:17:00,27.3,17.5,30.15,NNW,337,4.9,7.8,66,0.00,,,0.00,WUHU21623XXSP,2013-11-28 20:17:00,
2013-11-28 14:22:00,27.5,18.0,30.15,North,0,2.2,7.8,67,0.00,,,0.00,WUHU21623XXSP,2013-11-28 20:22:00,
2013-11-28 14:27:00,27.3,17.8,30.16,North,0,0.0,6.9,67,0.00,,,0.00,WUHU21623XXSP,2013-11-28 20:27:00,
2013-11-28 14:32:00,27.3,17.8,30.16,NNW,337,3.6,6.5,67,0.00,,,0.00,WUHU21623XXSP,2013-11-28 20:32:00,
2013-11-28 14:37:00,27.1,17.6,30.16,North,0,4.0,7.2,67,0.00,,,0.00,WUHU21623XXSP,2013-11-28 20:37:00,
2013-11-28 14:42:00,27.3,17.8,30.17,North,0,7.4,7.4,67,0.00,,,0.00,WUHU21623XXSP,2013-11-28 20:42:00,
2013-11-28 14:47:00,27.1,17.6,30.17,NNW,337,3.1,7.4,67,0.00,,,0.00,WUHU21623XXSP,2013-11-28 20:47:00,
2013-11-28 14:52:00,27.1,18.0,30.18,NNW,337,0.0,7.6,68,0.00,,,0.00,WUHU21623XXSP,2013-11-28 20:52:00,
2013-11-28 14:57:00,27.1,18.0,30.18,North,0,4.3,7.6,68,0.00,,,0.00,WUHU21623XXSP,2013-11-28 20:57:00,
2013-11-28 15:02:00,27.5,18.0,30.18,NNW,337,6.3,9.4,67,0.00,,,0.00,WUHU21623XXSP,2013-11-28 21:02:00,
2013-11-28 15:07:00,27.1,18.0,30.19,NNW,337,0.0,9.4,68,0.00,,,0.00,WUHU21623XXSP,2013-11-28 21:07:00,
2013-11-28 15:12:00,27.1,18.0,30.19,NNW,337,3.6,6.7,68,0.00,,,0.00,WUHU21623XXSP,2013-11-28 21:12:00,
2013-11-28 15:17:00,27.0,18.2,30.19,NNE,22,1.6,5.8,69,0.00,,,0.00,WUHU21623XXSP,2013-11-28 21:17:00,
2013-11-28 15:22:00,26.4,17.7,30.20,NNW,337,4.9,6.3,69,0.00,,,0.00,WUHU21623XXSP,2013-11-28 21:22:00,
2013-11-28 15:27:00,26.4,18.0,30.20,North,0,3.1,6.5,70,0.00,,,0.00,WUHU21623XXSP,2013-11-28 21:27:00,
2013-11-28 15:32:00,26.2,17.8,30.20,NE,45,5.4,6.5,70,0.00,,,0.00,WUHU21623XXSP,2013-11-28 21:32:00,
2013-11-28 15:37:00,26.1,17.7,30.21,NNW,337,2.2,6.0,70,0.00,,,0.00,WUHU21623XXSP,2013-11-28 21:37:00,
2013-11-28 15:42:00,25.5,17.1,30.21,NW,315,3.8,4.3,70,0.00,,,0.00,WUHU21623XXSP,2013-11-28 21:42:00,
2013-11-28 15:47:00,25.3,17.3,30.22,NNE,22,2.5,4.3,71,0.00,,,0.00,WUHU21623XXSP,2013-11-28 21:47:00,
2013-11-28 15:52:00,25.2,17.2,30.21,North,0,4.5,4.5,71,0.00,,,0.00,WUHU21623XXSP,2013-11-28 21:52:00,
2013-11-28 15:57:00,25.0,17.0,30.22,NNW,337,1.1,4.7,71,0.00,,,0.00,WUHU21623XXSP,2013-11-28 21:57:00,
2013-11-28 16:02:00,25.0,17.3,30.22,North,0,0.0,4.7,72,0.00,,,0.00,WUHU21623XXSP,2013-11-28 22:02:00,
2013-11-28 16:07:00,24.6,16.9,30.22,North,0,1.1,4.3,72,0.00,,,0.00,WUHU21623XXSP,2013-11-28 22:07:00,
2013-11-28 16:12:00,24.4,16.7,30.23,NNE,22,3.1,4.5,72,0.00,,,0.00,WUHU21623XXSP,2013-11-28 22:12:00,
2013-11-28 16:17:00,24.1,16.8,30.23,North,0,1.3,4.5,73,0.00,,,0.00,WUHU21623XXSP,2013-11-28 22:17:00,
2013-11-28 16:22:00,23.9,16.6,30.24,NNW,337,1.6,4.5,73,0.00,,,0.00,WUHU21623XXSP,2013-11-28 22:22:00,
2013-11-28 16:27:00,23.7,16.4,30.24,NW,315,0.0,4.0,73,0.00,,,0.00,WUHU21623XXSP,2013-11-28 22:27:00,
2013-11-28 16:32:00,23.4,16.1,30.24,NNE,22,0.0,2.7,73,0.00,,,0.00,WUHU21623XXSP,2013-11-28 22:32:00,
2013-11-28 16:37:00,23.0,16.0,30.25,North,0,0.0,2.0,74,0.00,,,0.00,WUHU21623XXSP,2013-11-28 22:37:00,
2013-11-28 16:42:00,22.8,15.8,30.25,North,0,0.0,0.0,74,0.00,,,0.00,WUHU21623XXSP,2013-11-28 22:42:00,
2013-11-28 16:47:00,22.5,15.5,30.25,NNW,337,0.0,0.0,74,0.00,,,0.00,WUHU21623XXSP,2013-11-28 22:47:00,
2013-11-28 16:52:00,21.9,15.0,30.25,NW,315,0.0,0.0,74,0.00,,,0.00,WUHU21623XXSP,2013-11-28 22:52:00,
2013-11-28 16:57:00,21.7,15.1,30.26,NNW,337,0.0,0.0,75,0.00,,,0.00,WUHU21623XXSP,2013-11-28 22:57:00,
2013-11-28 17:02:00,21.6,15.0,30.26,NNW,337,0.0,0.0,75,0.00,,,0.00,WUHU21623XXSP,2013-11-28 23:02:00,
2013-11-28 17:07:00,21.4,14.8,30.27,NNW,337,0.0,0.0,75,0.00,,,0.00,WUHU21623XXSP,2013-11-28 23:07:00,
2013-11-28 17:12:00,21.0,14.7,30.27,NNW,337,0.0,0.0,76,0.00,,,0.00,WUHU21623XXSP,2013-11-28 23:12:00,
2013-11-28 17:17:00,20.8,14.5,30.27,NNW,337,0.0,0.0,76,0.00,,,0.00,WUHU21623XXSP,2013-11-28 23:17:00,
2013-11-28 17:22:00,20.5,14.5,30.27,NNW,337,0.0,0.0,77,0.00,,,0.00,WUHU21623XXSP,2013-11-28 23:22:00,
2013-11-28 17:27:00,20.1,14.1,30.27,NNW,337,0.0,0.0,77,0.00,,,0.00,WUHU21623XXSP,2013-11-28 23:27:00,
2013-11-28 17:32:00,19.9,13.9,30.27,NNW,337,0.0,0.0,77,0.00,,,0.00,WUHU21623XXSP,2013-11-28 23:32:00,
2013-11-28 17:37:00,19.6,13.7,30.28,North,0,0.0,0.0,77,0.00,,,0.00,WUHU21623XXSP,2013-11-28 23:37:00,
2013-11-28 17:42:00,19.4,13.8,30.28,North,0,0.0,0.0,78,0.00,,,0.00,WUHU21623XXSP,2013-11-28 23:42:00,
2013-11-28 17:47:00,19.2,13.6,30.28,North,0,0.0,0.0,78,0.00,,,0.00,WUHU21623XXSP,2013-11-28 23:47:00,
2013-11-28 17:52:00,18.9,13.3,30.28,North,0,0.0,0.0,78,0.00,,,0.00,WUHU21623XXSP,2013-11-28 23:52:00,
2013-11-28 17:57:00,18.5,12.9,30.29,North,0,0.0,0.0,78,0.00,,,0.00,WUHU21623XXSP,2013-11-28 23:57:00,
2013-11-28 18:02:00,18.3,12.7,30.29,NNE,22,0.0,0.0,78,0.00,,,0.00,WUHU21623XXSP,2013-11-29 00:02:00,
2013-11-28 18:07:00,17.8,12.5,30.29,NNE,22,0.0,0.0,79,0.00,,,0.00,WUHU21623XXSP,2013-11-29 00:07:00,
2013-11-28 18:12:00,17.4,12.1,30.30,NE,45,0.0,0.0,79,0.00,,,0.00,WUHU21623XXSP,2013-11-29 00:12:00,
2013-11-28 18:17:00,17.4,12.1,30.30,ESE,112,0.0,0.0,79,0.00,,,0.00,WUHU21623XXSP,2013-11-29 00:17:00,
2013-11-28 18:22:00,17.8,12.8,30.30,SSE,157,0.0,0.0,80,0.00,,,0.00,WUHU21623XXSP,2013-11-29 00:22:00,
2013-11-28 18:27:00,17.4,12.4,30.30,SSE,157,0.0,0.0,80,0.00,,,0.00,WUHU21623XXSP,2013-11-29 00:27:00,
2013-11-28 18:32:00,17.4,12.4,30.30,South,180,0.0,0.0,80,0.00,,,0.00,WUHU21623XXSP,2013-11-29 00:32:00,
2013-11-28 18:37:00,17.4,12.4,30.31,SSW,202,1.3,1.3,80,0.00,,,0.00,WUHU21623XXSP,2013-11-29 00:37:00,
2013-11-28 18:42:00,17.8,13.1,30.31,SSW,202,0.0,1.3,81,0.00,,,0.00,WUHU21623XXSP,2013-11-29 00:42:00,
2013-11-28 18:47:00,17.4,12.7,30.31,SSW,202,0.0,1.3,81,0.00,,,0.00,WUHU21623XXSP,2013-11-29 00:47:00,
2013-11-28 18:52:00,16.9,12.2,30.31,SSW,202,0.0,0.0,81,0.00,,,0.00,WUHU21623XXSP,2013-11-29 00:52:00,
2013-11-28 18:57:00,16.7,12.0,30.31,SSW,202,0.0,0.0,81,0.00,,,0.00,WUHU21623XXSP,2013-11-29 00:57:00,
2013-11-28 19:02:00,16.7,12.3,30.31,SSW,202,0.0,0.0,82,0.00,,,0.00,WUHU21623XXSP,2013-11-29 01:02:00,
2013-11-28 19:07:00,16.3,11.6,30.31,SSW,202,0.0,0.0,81,0.00,,,0.00,WUHU21623XXSP,2013-11-29 01:07:00,
2013-11-28 19:12:00,16.2,11.5,30.31,SSW,202,0.0,0.0,81,0.00,,,0.00,WUHU21623XXSP,2013-11-29 01:12:00,
2013-11-28 19:17:00,15.8,11.4,30.31,SSW,202,0.0,0.0,82,0.00,,,0.00,WUHU21623XXSP,2013-11-29 01:17:00,
2013-11-28 19:22:00,15.6,11.2,30.32,SSW,202,0.0,0.0,82,0.00,,,0.00,WUHU21623XXSP,2013-11-29 01:22:00,
2013-11-28 19:27:00,15.4,11.0,30.32,SSW,202,0.0,0.0,82,0.00,,,0.00,WUHU21623XXSP,2013-11-29 01:27:00,
2013-11-28 19:32:00,15.6,11.2,30.32,South,180,0.0,0.0,82,0.00,,,0.00,WUHU21623XXSP,2013-11-29 01:32:00,
2013-11-28 19:37:00,15.6,11.2,30.32,South,180,0.0,0.0,82,0.00,,,0.00,WUHU21623XXSP,2013-11-29 01:37:00,
2013-11-28 19:42:00,15.3,11.2,30.32,South,180,0.0,0.0,83,0.00,,,0.00,WUHU21623XXSP,2013-11-29 01:42:00,
2013-11-28 19:47:00,15.1,11.0,30.32,South,180,0.0,0.0,83,0.00,,,0.00,WUHU21623XXSP,2013-11-29 01:47:00,
2013-11-28 19:52:00,15.3,11.2,30.33,SE,135,0.0,0.0,83,0.00,,,0.00,WUHU21623XXSP,2013-11-29 01:52:00,
2013-11-28 19:57:00,15.1,11.0,30.33,SSE,157,0.0,0.0,83,0.00,,,0.00,WUHU21623XXSP,2013-11-29 01:57:00,
2013-11-28 20:02:00,14.9,10.8,30.33,SSE,157,0.0,0.0,83,0.00,,,0.00,WUHU21623XXSP,2013-11-29 02:02:00,
2013-11-28 20:07:00,15.3,11.2,30.33,South,180,0.0,0.0,83,0.00,,,0.00,WUHU21623XXSP,2013-11-29 02:07:00,
2013-11-28 20:12:00,15.4,11.3,30.33,SSW,202,0.0,0.0,83,0.00,,,0.00,WUHU21623XXSP,2013-11-29 02:12:00,
2013-11-28 20:17:00,15.4,11.3,30.34,South,180,0.0,0.0,83,0.00,,,0.00,WUHU21623XXSP,2013-11-29 02:17:00,
2013-11-28 20:22:00,15.3,11.4,30.34,SSW,202,0.0,0.0,85,0.00,,,0.00,WUHU21623XXSP,2013-11-29 02:22:00,
2013-11-28 20:27:00,15.1,11.2,30.34,SSE,157,0.0,0.0,85,0.00,,,0.00,WUHU21623XXSP,2013-11-29 02:27:00,
2013-11-28 20:32:00,14.9,11.0,30.35,SSE,157,0.0,0.0,85,0.00,,,0.00,WUHU21623XXSP,2013-11-29 02:32:00,
2013-11-28 20:37:00,14.7,10.8,30.35,SSE,157,0.0,0.0,85,0.00,,,0.00,WUHU21623XXSP,2013-11-29 02:37:00,
2013-11-28 20:42:00,14.7,10.8,30.35,SSE,157,0.0,0.0,85,0.00,,,0.00,WUHU21623XXSP,2013-11-29 02:42:00,
2013-11-28 20:47:00,14.5,10.6,30.35,SSE,157,0.0,0.0,85,0.00,,,0.00,WUHU21623XXSP,2013-11-29 02:47:00,
2013-11-28 20:52:00,14.4,10.8,30.35,SSE,157,0.0,0.0,86,0.00,,,0.00,WUHU21623XXSP,2013-11-29 02:52:00,
2013-11-28 20:57:00,14.2,10.6,30.35,SSE,157,0.0,0.0,86,0.00,,,0.00,WUHU21623XXSP,2013-11-29 02:57:00,
2013-11-28 21:02:00,14.2,10.6,30.35,SSE,157,0.0,0.0,86,0.00,,,0.00,WUHU21623XXSP,2013-11-29 03:02:00,
2013-11-28 21:07:00,14.2,10.6,30.35,SSE,157,0.0,0.0,86,0.00,,,0.00,WUHU21623XXSP,2013-11-29 03:07:00,
2013-11-28 21:12:00,14.2,10.6,30.35,South,180,0.0,0.0,86,0.00,,,0.00,WUHU21623XXSP,2013-11-29 03:12:00,
2013-11-28 21:17:00,14.2,10.6,30.36,South,180,0.0,0.0,86,0.00,,,0.00,WUHU21623XXSP,2013-11-29 03:17:00,
2013-11-28 21:22:00,13.8,10.2,30.36,South,180,0.0,0.0,86,0.00,,,0.00,WUHU21623XXSP,2013-11-29 03:22:00,
2013-11-28 21:27:00,13.6,10.0,30.36,South,180,0.0,0.0,86,0.00,,,0.00,WUHU21623XXSP,2013-11-29 03:27:00,
2013-11-28 21:32:00,13.3,9.7,30.37,South,180,0.0,0.0,86,0.00,,,0.00,WUHU21623XXSP,2013-11-29 03:32:00,
2013-11-28 21:37:00,12.9,9.3,30.37,South,180,0.0,0.0,86,0.00,,,0.00,WUHU21623XXSP,2013-11-29 03:37:00,
2013-11-28 21:42:00,12.7,9.1,30.37,South,180,0.0,0.0,86,0.00,,,0.00,WUHU21623XXSP,2013-11-29 03:42:00,
2013-11-28 21:47:00,12.9,9.3,30.37,South,180,0.0,0.0,86,0.00,,,0.00,WUHU21623XXSP,2013-11-29 03:47:00,
2013-11-28 21:52:00,12.7,9.1,30.37,South,180,0.0,0.0,86,0.00,,,0.00,WUHU21623XXSP,2013-11-29 03:52:00,
2013-11-28 21:57:00,12.7,9.1,30.38,South,180,0.0,0.0,86,0.00,,,0.00,WUHU21623XXSP,2013-11-29 03:57:00,
2013-11-28 22:02:00,12.7,9.4,30.38,South,180,0.0,0.0,87,0.00,,,0.00,WUHU21623XXSP,2013-11-29 04:02:00,
2013-11-28 22:07:00,13.1,9.8,30.37,South,180,0.0,0.0,87,0.00,,,0.00,WUHU21623XXSP,2013-11-29 04:07:00,
2013-11-28 22:12:00,13.1,9.8,30.37,South,180,0.0,0.0,87,0.00,,,0.00,WUHU21623XXSP,2013-11-29 04:12:00,
2013-11-28 22:17:00,12.9,9.6,30.37,South,180,0.0,0.0,87,0.00,,,0.00,WUHU21623XXSP,2013-11-29 04:17:00,
2013-11-28 22:22:00,12.9,9.6,30.38,South,180,0.0,0.0,87,0.00,,,0.00,WUHU21623XXSP,2013-11-29 04:22:00,
2013-11-28 22:27:00,13.3,10.0,30.38,SSW,202,0.0,0.0,87,0.00,,,0.00,WUHU21623XXSP,2013-11-29 04:27:00,
2013-11-28 22:32:00,13.1,9.8,30.38,SSW,202,0.0,0.0,87,0.00,,,0.00,WUHU21623XXSP,2013-11-29 04:32:00,
2013-11-28 22:37:00,12.9,9.6,30.38,SSW,202,0.0,0.0,87,0.00,,,0.00,WUHU21623XXSP,2013-11-29 04:37:00,
2013-11-28 22:42:00,12.6,9.3,30.38,SSW,202,0.0,0.0,87,0.00,,,0.00,WUHU21623XXSP,2013-11-29 04:42:00,
2013-11-28 22:47:00,12.2,8.9,30.38,ESE,112,0.0,0.0,87,0.00,,,0.00,WUHU21623XXSP,2013-11-29 04:47:00,
2013-11-28 22:52:00,12.0,8.7,30.38,ESE,112,0.0,0.0,87,0.00,,,0.00,WUHU21623XXSP,2013-11-29 04:52:00,
2013-11-28 22:57:00,12.0,8.7,30.39,ESE,112,0.0,0.0,87,0.00,,,0.00,WUHU21623XXSP,2013-11-29 04:57:00,
2013-11-28 23:01:00,12.0,8.7,30.38,ESE,112,0.0,0.0,87,0.00,,,0.00,WUHU21623XXSP,2013-11-29 05:01:00,
2013-11-28 23:02:00,12.0,8.7,30.38,ESE,112,0.0,0.0,87,0.00,,,0.00,WUHU21623XXSP,2013-11-29 05:02:00,
2013-11-28 23:07:00,12.0,9.0,30.39,ESE,112,0.0,0.0,88,0.00,,,0.00,WUHU21623XXSP,2013-11-29 05:07:00,
2013-11-28 23:12:00,12.0,9.0,30.39,ESE,112,0.0,0.0,88,0.00,,,0.00,WUHU21623XXSP,2013-11-29 05:12:00,
2013-11-28 23:17:00,12.7,9.7,30.39,South,180,0.0,0.0,88,0.00,,,0.00,WUHU21623XXSP,2013-11-29 05:17:00,
2013-11-28 23:22:00,12.9,9.9,30.39,South,180,0.0,0.0,88,0.00,,,0.00,WUHU21623XXSP,2013-11-29 05:22:00,
2013-11-28 23:27:00,12.7,9.4,30.40,South,180,0.0,0.0,87,0.00,,,0.00,WUHU21623XXSP,2013-11-29 05:27:00,
2013-11-28 23:32:00,12.9,9.6,30.40,South,180,0.0,0.0,87,0.00,,,0.00,WUHU21623XXSP,2013-11-29 05:32:00,
2013-11-28 23:37:00,13.1,9.8,30.39,South,180,0.0,0.0,87,0.00,,,0.00,WUHU21623XXSP,2013-11-29 05:37:00,
2013-11-28 23:42:00,12.7,9.4,30.40,South,180,0.0,0.0,87,0.00,,,0.00,WUHU21623XXSP,2013-11-29 05:42:00,
2013-11-28 23:47:00,12.6,9.6,30.40,South,180,0.0,0.0,88,0.00,,,0.00,WUHU21623XXSP,2013-11-29 05:47:00,
2013-11-28 23:52:00,12.4,9.4,30.40,South,180,0.0,0.0,88,0.00,,,0.00,WUHU21623XXSP,2013-11-29 05:52:00,
2013-11-28 23:57:00,12.4,9.4,30.40,South,180,0.0,0.0,88,0.00,,,0.00,WUHU21623XXSP,2013-11-29 05:57:00,